Flag for Switzerland Weather past 2 weeks in Sarnen, Obwalden, Switzerland

Now
91 °F

Hot.


Feels Like: 97 °F
Forecast: 58 / 74 °F
Wind: 3 mph from Northeast

Location: Giswil

Current Time: Jul 7, 2015 at 4:10:51 PM

Latest Report: Jul 7, 2015 at 3:00 PM


Visibility: N/A

Pressure: 29.80 "Hg

Humidity: 51%

Dew point: 71 °F

Location of SarnenLocation

Historic Weather in Sarnen — Graph

°F

Sarnen temperature yesterday

Maximum temperature yesterday: 86 °F (at 5:00 PM)
Minimum temperature yesterday: 67 °F (at 6:00 AM)
Average temperature yesterday: 77 °F

Past Weeks' High & Low Weather Summary

 TemperatureHumidityPressure
High94 °F (Jul 4, 5:00 PM)99% (Jun 25, 6:00 AM)30.25 "Hg (Jun 25, 6:00 AM)
Low47 °F (Jun 25, 6:00 AM)35% (Jul 5, 1:00 PM)29.71 "Hg (Jun 22, 11:00 PM)
Average70 °F70%30.09 "Hg
* Reported Jun 22 2:00 PM — Jul 7 2:00 PM, Sarnen, Weather by CustomWeather, © 2015

Note: Actual official high and low records may vary slightly from our data, if they occured in-between our weather recording intervals... More about our weather records

Advertising

Sarnen weather history for previous 24 hours

 ConditionsComfort  
Time TempWeatherWind HumidityBarometerVisibility
2:00 PM
Tue, Jul 7
90 °FHot.3 mph47%29.83 "HgN/A
1:00 PM89 °FHot.1 mph44%29.85 "HgN/A
12:00 PM85 °FWarm.2 mph47%29.88 "HgN/A
11:00 AM83 °FWarm.2 mph49%29.91 "HgN/A
10:00 AM78 °FWarm.2 mph60%29.93 "HgN/A
9:00 AM76 °FMild.1 mph66%29.96 "HgN/A
8:00 AM72 °FMild.1 mph81%29.99 "HgN/A
7:00 AM66 °FMild.1 mph94%30.01 "HgN/A
6:00 AM63 °FMild.2 mph95%30.02 "HgN/A
4:00 AM65 °FMild.2 mph97%30.02 "HgN/A
3:00 AM66 °FMild.1 mph97%30.03 "HgN/A
2:00 AM67 °FMild.2 mph96%30.03 "HgN/A
1:00 AM68 °FMild.2 mph95%30.05 "HgN/A
12:00 AM71 °FMild.2 mph89%30.04 "HgN/A
10:00 PM
Mon, Jul 6
74 °FMild.2 mph84%30.04 "HgN/A
9:00 PM78 °FWarm.1 mph76%30.03 "HgN/A
8:00 PM82 °FWarm.1 mph71%30.02 "HgN/A
7:00 PM85 °FWarm.2 mph55%30.00 "HgN/A
6:00 PM86 °FWarm.3 mph51%30.00 "HgN/A
5:00 PM86 °FWarm.3 mph50%30.02 "HgN/A
4:00 PM86 °FWarm.3 mph52%30.03 "HgN/A
Weather by CustomWeather, © 2015

See weather overviewHow to use our weather pages